^^
Datos históricos de la estación: Murcia-Puente Tocinos
 
Diario Informe para Julio 27, 2017 Unidades:  Métrico    Inglés   Ambas
« Anterior Día
Siguiente Día »
Diario Semanal Mensual Anual Configurable
  Actual: Máximo: Mínimo: Media:
Temperatura: 25.1 °C 26.4 °C 25.1 °C 25.8 °C
Punto de rocio: 21.4 °C 21.6 °C 21.2 °C 21.4 °C
Humedad: 80% 80% 74% 77%
Velocidad viento: 5.0km/h 8.7km/h 4.7km/h 6.8km/h
Racha viento: 7.6km/h 13.0km/h - -
VientoNorth - - NE
Presión: 1013.1 hPa 1013.1 hPa 1012.8 hPa -
Precipitación: 0.0 mm      
Historical Graphs
 
 
Tabla de datos para Julio 27, 2017
Hora Temperatura Punto de rocio Presión Viento Velocidad viento Racha viento Humedad Intensidad lluvia(por hora) Nubes
00:03 26.4 °C 21.4 °C 1012.8 hPa North 8.7 km/h 11.1 km/h 74% 0.0 mm CLR
00:08 26.3 °C 21.3 °C 1012.8 hPa NE 6.9 km/h 9.3 km/h 74% 0.0 mm CLR
00:13 26.2 °C 21.2 °C 1012.8 hPa NNE 6.9 km/h 13.0 km/h 74% 0.0 mm CLR
00:18 26.2 °C 21.2 °C 1012.8 hPa NNW 8.4 km/h 8.4 km/h 74% 0.0 mm CLR
00:23 26.2 °C 21.4 °C 1012.8 hPa NE 8.4 km/h 11.1 km/h 75% 0.0 mm CLR
00:28 26.2 °C 21.4 °C 1012.8 hPa North 8.4 km/h 11.1 km/h 75% 0.0 mm CLR
00:33 26.2 °C 21.4 °C 1012.8 hPa NNE 8.4 km/h 9.5 km/h 75% 0.0 mm CLR
00:38 26.2 °C 21.4 °C 1012.8 hPa NNE 7.6 km/h 11.1 km/h 75% 0.0 mm CLR
00:43 26.2 °C 21.4 °C 1013.1 hPa NE 7.6 km/h 13.0 km/h 75% 0.0 mm CLR
00:48 26.2 °C 21.4 °C 1013.1 hPa NNE 7.6 km/h 11.1 km/h 75% 0.0 mm CLR
00:53 26.1 °C 21.3 °C 1013.1 hPa NE 7.6 km/h 11.1 km/h 75% 0.0 mm CLR
00:58 26.1 °C 21.3 °C 1013.1 hPa NNE 7.6 km/h 9.3 km/h 75% 0.0 mm CLR
01:03 26.0 °C 21.4 °C 1013.1 hPa NE 7.6 km/h 10.0 km/h 76% 0.0 mm CLR
01:08 25.9 °C 21.3 °C 1013.1 hPa NNE 7.6 km/h 11.1 km/h 76% 0.0 mm CLR
01:13 25.9 °C 21.3 °C 1013.1 hPa NE 7.6 km/h 9.3 km/h 76% 0.0 mm CLR
01:18 25.9 °C 21.6 °C 1013.1 hPa NE 6.9 km/h 13.0 km/h 77% 0.0 mm CLR
01:23 25.8 °C 21.4 °C 1013.1 hPa NNE 6.9 km/h 11.1 km/h 77% 0.0 mm CLR
01:28 25.8 °C 21.4 °C 1013.1 hPa North 7.6 km/h 11.1 km/h 77% 0.0 mm CLR
01:33 25.7 °C 21.4 °C 1013.1 hPa NNE 7.6 km/h 9.3 km/h 77% 0.0 mm CLR
01:38 25.7 °C 21.4 °C 1013.1 hPa North 6.9 km/h 9.3 km/h 77% 0.0 mm CLR
01:43 25.6 °C 21.5 °C 1013.1 hPa NE 6.9 km/h 9.5 km/h 78% 0.0 mm CLR
01:48 25.5 °C 21.4 °C 1013.1 hPa ENE 6.9 km/h 9.3 km/h 78% 0.0 mm CLR
01:53 25.4 °C 21.3 °C 1013.1 hPa North 6.9 km/h 6.9 km/h 78% 0.0 mm CLR
01:58 25.4 °C 21.3 °C 1013.1 hPa NE 5.0 km/h 7.4 km/h 78% 0.0 mm CLR
02:03 25.4 °C 21.5 °C 1013.1 hPa NE 5.0 km/h 8.4 km/h 79% 0.0 mm CLR
02:08 25.3 °C 21.4 °C 1013.1 hPa NNE 6.4 km/h 7.4 km/h 79% 0.0 mm CLR
02:13 25.4 °C 21.5 °C 1013.1 hPa NNE 6.4 km/h 6.4 km/h 79% 0.0 mm CLR
02:18 25.3 °C 21.4 °C 1013.1 hPa NNE 5.0 km/h 7.4 km/h 79% 0.0 mm CLR
02:19 25.3 °C 21.4 °C 1013.1 hPa NNE 5.0 km/h 7.4 km/h 79% 0.0 mm CLR
02:24 25.3 °C 21.4 °C 1013.1 hPa NE 5.0 km/h 7.4 km/h 79% 0.0 mm CLR
02:29 25.3 °C 21.4 °C 1013.1 hPa NE 4.7 km/h 7.4 km/h 79% 0.0 mm CLR
02:34 25.2 °C 21.3 °C 1013.1 hPa NNE 4.7 km/h 9.3 km/h 79% 0.0 mm CLR
02:39 25.1 °C 21.4 °C 1013.1 hPa North 5.0 km/h 7.6 km/h 80% 0.0 mm CLR
Murcia-Puente Tocinos, España
Compliments of Weather Underground - 1.5 mb

La estación de MeteoMurcia.com, publica sus datos en los siguientes proyectos:

Meteoclimatic www.awekas.at

W3Counter
Web Analytics